When you browse on this site, cookies collect data to enhance your experience and personalize the content and advertising you see.
Visit our Privacy Policy to learn more. By continuing to use the site, you agree to this use of cookies and data.
  • Em Portugal
  • Lista de países
  • Para 7 dias
  • Temperatura da água
  • Mapas de satélite
  • Mapa do tempo
  • Widgets de tempo
  • user-avatar
    Iniciar Sessão

    Previsão horária em Tyumenskaya

    Hoje, 26 Abril, Sexta-feira

    Tempo Temperatura Precipitação Vento Pressão Humidade
    00:00 +1°C° 0 mm 2 m/s 753 mmHg 71%
    01:00 -1°C° 0 mm 2 m/s 753 mmHg 74%
    02:00 +1°C° 0 mm 1 m/s 753 mmHg 73%
    03:00 +1°C° 0 mm 1 m/s 753 mmHg 72%
    04:00 0°C° 0 mm 1 m/s 753 mmHg 72%
    05:00 +1°C° 0 mm 1 m/s 753 mmHg 67%
    06:00 +2°C° 0 mm 1 m/s 754 mmHg 62%
    07:00 +2°C° 0 mm 0 m/s 754 mmHg 57%
    08:00 +4°C° 0 mm 1 m/s 753 mmHg 54%
    09:00 +5°C° 0 mm 1 m/s 753 mmHg 51%
    10:00 +4°C° 0 mm 2 m/s 753 mmHg 48%
    11:00 +5°C° 0 mm 2 m/s 753 mmHg 47%
    12:00 +5°C° 0 mm 3 m/s 752 mmHg 45%
    13:00 +5°C° 0 mm 3 m/s 752 mmHg 44%
    14:00 +5°C° 0.2 mm 3 m/s 751 mmHg 47%
    15:00 +5°C° 0.2 mm 4 m/s 751 mmHg 50%
    16:00 +5°C° 0.2 mm 4 m/s 751 mmHg 53%
    17:00 +4°C° 0.2 mm 3 m/s 750 mmHg 59%
    18:00 +4°C° 0.2 mm 3 m/s 750 mmHg 64%
    19:00 +3°C° 0.2 mm 3 m/s 750 mmHg 69%
    20:00 +3°C° 0.1 mm 3 m/s 750 mmHg 71%
    21:00 +2°C° 0.1 mm 3 m/s 750 mmHg 73%
    22:00 +2°C° 0.1 mm 3 m/s 750 mmHg 76%
    23:00 +1°C° 0 mm 3 m/s 750 mmHg 76%

    Amanhã, 27 Abril, Sábado

    Tempo Temperatura Precipitação Vento Pressão Humidade
    00:00 0°C° 0 mm 3 m/s 750 mmHg 76%
    01:00 -1°C° 0 mm 3 m/s 750 mmHg 77%
    02:00 -2°C° 0 mm 3 m/s 750 mmHg 79%
    03:00 -2°C° 0 mm 3 m/s 751 mmHg 81%
    04:00 -4°C° 0 mm 3 m/s 751 mmHg 84%
    05:00 -2°C° 0 mm 3 m/s 751 mmHg 77%
    06:00 -2°C° 0 mm 4 m/s 752 mmHg 70%
    07:00 -2°C° 0 mm 4 m/s 752 mmHg 63%
    08:00 -1°C° 0 mm 4 m/s 752 mmHg 56%
    09:00 +1°C° 0 mm 3 m/s 752 mmHg 50%
    10:00 +2°C° 0 mm 3 m/s 752 mmHg 43%
    11:00 +3°C° 0 mm 3 m/s 752 mmHg 42%
    12:00 +3°C° 0 mm 3 m/s 752 mmHg 42%
    13:00 +4°C° 0 mm 3 m/s 751 mmHg 41%
    14:00 +4°C° 0.3 mm 3 m/s 751 mmHg 49%
    15:00 +3°C° 0.3 mm 3 m/s 750 mmHg 56%
    16:00 +3°C° 0.3 mm 3 m/s 749 mmHg 63%
    17:00 +3°C° 0.6 mm 4 m/s 749 mmHg 67%
    18:00 +3°C° 0.6 mm 4 m/s 748 mmHg 70%
    19:00 +1°C° 0.6 mm 5 m/s 747 mmHg 73%
    20:00 +2°C° 0.2 mm 5 m/s 746 mmHg 74%
    21:00 +3°C° 0.2 mm 5 m/s 745 mmHg 75%
    22:00 +5°C° 0.2 mm 5 m/s 745 mmHg 75%
    23:00 +4°C° 0 mm 4 m/s 744 mmHg 77%

    Depois de amanhã, 28 Abril, Domingo

    Tempo Temperatura Precipitação Vento Pressão Humidade
    00:00 +4°C° 0 mm 4 m/s 744 mmHg 78%
    01:00 +4°C° 0 mm 4 m/s 744 mmHg 80%
    02:00 +3°C° 0 mm 3 m/s 744 mmHg 82%
    03:00 +3°C° 0 mm 3 m/s 743 mmHg 85%
    04:00 +3°C° 0 mm 2 m/s 743 mmHg 88%
    05:00 +4°C° 0.1 mm 2 m/s 743 mmHg 87%
    06:00 +4°C° 0.1 mm 2 m/s 742 mmHg 86%
    07:00 +5°C° 0.1 mm 2 m/s 742 mmHg 85%
    08:00 +5°C° 0.8 mm 2 m/s 742 mmHg 86%
    09:00 +6°C° 0.8 mm 2 m/s 742 mmHg 87%
    10:00 +6°C° 0.8 mm 2 m/s 741 mmHg 88%
    11:00 +4°C° 1.7 mm 3 m/s 741 mmHg 89%
    12:00 +2°C° 1.7 mm 5 m/s 741 mmHg 90%
    13:00 +1°C° 1.7 mm 6 m/s 741 mmHg 92%
    14:00 -1°C° 2.4 mm 6 m/s 741 mmHg 92%
    15:00 -2°C° 2.4 mm 6 m/s 742 mmHg 93%
    16:00 -2°C° 2.4 mm 6 m/s 742 mmHg 94%
    17:00 -3°C° 0.6 mm 6 m/s 743 mmHg 93%
    18:00 -3°C° 0.6 mm 6 m/s 743 mmHg 93%
    19:00 -3°C° 0.6 mm 6 m/s 744 mmHg 92%
    20:00 -4°C° 0.2 mm 5 m/s 745 mmHg 91%
    21:00 -4°C° 0.2 mm 5 m/s 745 mmHg 90%
    22:00 -5°C° 0.2 mm 5 m/s 746 mmHg 89%
    23:00 -5°C° 0 mm 5 m/s 746 mmHg 89%

    29 Abril, Segunda-feira

    Tempo Temperatura Precipitação Vento Pressão Humidade
    00:00 -5°C° 0 mm 5 m/s 746 mmHg 89%
    01:00 -6°C° 0 mm 5 m/s 747 mmHg 89%
    02:00 -6°C° 0.1 mm 5 m/s 747 mmHg 89%
    03:00 -6°C° 0.1 mm 5 m/s 748 mmHg 89%
    04:00 -6°C° 0.1 mm 5 m/s 749 mmHg 89%
    05:00 -6°C° 0 mm 5 m/s 749 mmHg 87%
    06:00 -7°C° 0 mm 5 m/s 750 mmHg 84%
    07:00 -8°C° 0 mm 6 m/s 750 mmHg 81%
    08:00 -6°C° 0 mm 6 m/s 751 mmHg 78%
    09:00 -6°C° 0 mm 6 m/s 751 mmHg 74%
    10:00 -5°C° 0 mm 6 m/s 752 mmHg 71%
    11:00 -4°C° 0 mm 5 m/s 752 mmHg 71%
    12:00 -4°C° 0 mm 5 m/s 752 mmHg 71%
    13:00 -2°C° 0 mm 5 m/s 752 mmHg 70%
    14:00 -2°C° 0 mm 5 m/s 752 mmHg 69%
    15:00 -2°C° 0 mm 4 m/s 752 mmHg 67%
    16:00 -1°C° 0 mm 4 m/s 752 mmHg 66%
    17:00 -1°C° 0 mm 3 m/s 752 mmHg 70%
    18:00 -2°C° 0 mm 3 m/s 752 mmHg 74%
    19:00 -3°C° 0 mm 2 m/s 752 mmHg 79%
    20:00 -4°C° 0 mm 2 m/s 752 mmHg 81%
    21:00 -5°C° 0 mm 2 m/s 753 mmHg 84%
    22:00 -5°C° 0 mm 2 m/s 753 mmHg 86%
    23:00 -6°C° 0 mm 2 m/s 752 mmHg 87%

    30 Abril, Terça-feira

    Tempo Temperatura Precipitação Vento Pressão Humidade
    00:00 -6°C° 0 mm 2 m/s 752 mmHg 88%
    01:00 -6°C° 0 mm 2 m/s 752 mmHg 89%
    02:00 -6°C° 0 mm 2 m/s 752 mmHg 89%
    03:00 -7°C° 0 mm 2 m/s 752 mmHg 89%
    04:00 -7°C° 0 mm 2 m/s 752 mmHg 90%
    05:00 -6°C° 0 mm 2 m/s 752 mmHg 85%
    06:00 -5°C° 0 mm 2 m/s 752 mmHg 81%
    07:00 -3°C° 0 mm 2 m/s 751 mmHg 77%
    08:00 -2°C° 0 mm 3 m/s 751 mmHg 72%
    09:00 -1°C° 0 mm 3 m/s 751 mmHg 66%
    10:00 0°C° 0 mm 3 m/s 751 mmHg 61%
    11:00 +1°C° 0 mm 3 m/s 750 mmHg 58%
    12:00 +1°C° 0 mm 3 m/s 750 mmHg 56%
    13:00 +2°C° 0 mm 3 m/s 750 mmHg 53%
    14:00 +2°C° 0.1 mm 3 m/s 749 mmHg 54%
    15:00 +2°C° 0.1 mm 3 m/s 749 mmHg 55%
    16:00 +1°C° 0.1 mm 4 m/s 749 mmHg 56%
    17:00 +1°C° 0.1 mm 3 m/s 749 mmHg 62%
    18:00 +1°C° 0.1 mm 3 m/s 749 mmHg 68%
    19:00 +1°C° 0.1 mm 2 m/s 749 mmHg 73%
    20:00 -1°C° 0 mm 3 m/s 749 mmHg 76%
    21:00 -1°C° 0 mm 3 m/s 750 mmHg 80%
    22:00 -2°C° 0 mm 3 m/s 750 mmHg 83%
    23:00 -4°C° 0 mm 3 m/s 750 mmHg 84%

    1 Maio, Quarta-feira

    Tempo Temperatura Precipitação Vento Pressão Humidade
    00:00 -4°C° 0 mm 3 m/s 750 mmHg 85%
    01:00 -5°C° 0 mm 4 m/s 750 mmHg 86%
    02:00 -4°C° 0 mm 4 m/s 750 mmHg 85%
    03:00 -4°C° 0 mm 4 m/s 750 mmHg 85%
    04:00 -4°C° 0 mm 4 m/s 750 mmHg 84%
    05:00 -3°C° 0 mm 4 m/s 750 mmHg 79%
    06:00 -2°C° 0 mm 5 m/s 750 mmHg 75%
    07:00 -2°C° 0 mm 6 m/s 750 mmHg 71%
    08:00 +1°C° 0 mm 6 m/s 750 mmHg 66%
    09:00 +2°C° 0 mm 6 m/s 750 mmHg 61%
    10:00 +3°C° 0 mm 6 m/s 750 mmHg 56%
    11:00 +4°C° 0.2 mm 6 m/s 750 mmHg 55%
    12:00 +4°C° 0.2 mm 6 m/s 750 mmHg 54%
    13:00 +5°C° 0.2 mm 6 m/s 750 mmHg 53%
    14:00 +5°C° 0.1 mm 6 m/s 750 mmHg 53%
    15:00 +6°C° 0.1 mm 5 m/s 750 mmHg 52%
    16:00 +7°C° 0.1 mm 5 m/s 750 mmHg 52%
    17:00 +5°C° 0 mm 4 m/s 750 mmHg 59%
    18:00 +4°C° 0 mm 3 m/s 751 mmHg 66%
    19:00 +4°C° 0 mm 2 m/s 751 mmHg 74%
    20:00 +2°C° 0 mm 3 m/s 751 mmHg 76%
    21:00 +2°C° 0 mm 3 m/s 752 mmHg 79%
    22:00 +1°C° 0 mm 3 m/s 752 mmHg 81%
    23:00 +1°C° 0 mm 3 m/s 752 mmHg 83%
    Mostrar mais